Regional Weather Roundup
Issued by NWS

Home | Current Version | Previous Version | Text Only | Print | Product List | Glossary On
Versions: 1 2 3 4 5 6 7 8 9 10 11 12 13 14 15 16 17 18 19 20 21 22 23 24 25 26 27 28 29 30 31 32 33 34 35 36 37 38 39 40 41 42 43 44 45 46 47 48 49 50
000
ASUS42 KFFC 301210
RWRGA
WEATHER ROUNDUP FOR GEORGIA
NATIONAL WEATHER SERVICE PEACHTREE CITY GA
800 AM EDT SUN AUG 30 2015

NOTE: "FAIR" INDICATES FEW OR NO CLOUDS BELOW 12,000 FEET WITH NO
SIGNIFICANT WEATHER AND/OR OBSTRUCTIONS TO VISIBILITY.

* = USE WITH CAUTION. THE STATIONS MARKED WITH AN ASTERISK MAY NOT
REPORT WEATHER SUCH AS PRECIPITATION, FOG, OR THUNDER AND ARE NOT
QUALITY CONTROLLED BY NWS.

THE REMARK "TC" DENOTES TEMPERATURE READING IN DEGREES CELSIUS.

GAZ001>058-301300-
NORTH GEORGIA

CITY           SKY/WX    TMP DP  RH WIND       PRES   REMARKS
ATLANTA        CLOUDY    72  63  73 NE13      30.10S
6HR MIN TEMP:  71; 6HR MAX TEMP:  74;

ATHENS         CLOUDY    69  64  84 E6        30.14R
6HR MIN TEMP:  69; 6HR MAX TEMP:  71;

CHAMBLEE       CLOUDY    71  64  78 CALM      30.11S
6HR MIN TEMP:  71; 6HR MAX TEMP:  73;

PEACHTREE CITY RAIN      68  67  96 CALM      30.10S FOG
6HR MIN TEMP:  68; 6HR MAX TEMP:  71; 6HR PCP:  0.37;

ROME           CLOUDY    69  67  93 N6        30.11S
6HR MIN TEMP:  69; 6HR MAX TEMP:  72; 6HR PCP:  0.04;

WEST ATLANTA   CLOUDY    71  65  81 NE5       30.10F
6HR MIN TEMP:  70; 6HR MAX TEMP:  72;

GAINESVILLE    CLOUDY    69  62  78 NE5       30.17R
6HR MIN TEMP:  69; 6HR MAX TEMP:  71; 6HR PCP: TRACE;

CARTERSVILLE   CLOUDY    69  67  93 CALM      30.11F
6HR MIN TEMP:  68; 6HR MAX TEMP:  70; 6HR PCP:  0.01;



CITY           SKY/WX    TMP DP  RH WIND       PRES   REMARKS
DALTON*        CLOUDY    68  68 100 CALM      30.13S
MARIETTA       CLOUDY    70  66  86 VRB3      30.11S
KENNESAW*      MOCLDY    70  64  83 E5        30.12F
BLAIRSVILLE*     N/A     65  57  75 CALM      30.20R
$$

GAZ059>098-102>109-301300-
CENTRAL GEORGIA

CITY           SKY/WX    TMP DP  RH WIND       PRES   REMARKS
AUGUSTA-BUSH   LGT RAIN  70  68  93 CALM      30.11R
6HR MIN TEMP:  69; 6HR MAX TEMP:  72; 6HR PCP:  0.03;

AUGUSTA-DANIEL LGT RAIN  80  65  59 NE7       30.13R
6HR MIN TEMP:  77; 6HR MAX TEMP:  86; 6HR PCP:  0.01;

COLUMBUS       CLOUDY    72  70  94 CALM      30.06R
6HR MIN TEMP:  71; 6HR MAX TEMP:  72; 6HR PCP: TRACE;

MACON          CLOUDY    70  66  88 SE3       30.08R
6HR MIN TEMP:  69; 6HR MAX TEMP:  72; 6HR PCP:  0.11;

ROBINS AFB     LGT RAIN  70  68  94 VRB3      30.07R


CITY           SKY/WX    TMP DP  RH WIND       PRES   REMARKS
LAGRANGE*      CLOUDY    74  74 100 CALM      30.08S
SYLVANIA*      DRIZZLE   73  73 100 CALM      30.09R
MILLEDGEVILLE* HVY RAIN  70  64  83 E6        30.11R
$$

GAZ099>101-110>166-301300-
SOUTH GEORGIA

CITY           SKY/WX    TMP DP  RH WIND       PRES   REMARKS
SAVANNAH       CLOUDY    73  70  90 E6        30.09R
6HR MIN TEMP:  72; 6HR MAX TEMP:  76; 6HR PCP:  0.08;

VALDOSTA       PTSUNNY   73  73 100 CALM      30.06S
6HR MIN TEMP:  72; 6HR MAX TEMP:  74;

ALMA           CLOUDY    74  72  93 CALM      30.08R
6HR MIN TEMP:  73; 6HR MAX TEMP:  74;

ST SIMONS      CLOUDY    79  72  79 SE6       30.05R
6HR MIN TEMP:  75; 6HR MAX TEMP:  81; 6HR PCP:  0.03;

FT STEWART     CLOUDY    72  71  94 CALM      30.05R
ALBANY         CLOUDY    73  71  93 CALM      30.07R
HUNTER AFB     CLOUDY    73  73 100 VRB2      30.05S
MOODY AFB      PTSUNNY   72  71  96 E2        30.05S
BRUNSWICK      CLOUDY    73  72  94 CALM      30.06S


CITY           SKY/WX    TMP DP  RH WIND       PRES   REMARKS
BAINBRIDGE*    CLOUDY    72  72 100 CALM      30.06R
MOULTRIE*      CLOUDY    72  72 100 E5        30.07R FOG
VIDALIA*       LGT RAIN  72  72 100 CALM      30.09R
WAYCROSS*      CLOUDY    76  76  99 CALM      30.07R
DOUGLAS*       CLOUDY    75  73  94 CALM      30.09R FOG
$$


USA.gov is the U.S. government's official web portal to all federal, state and local government web resources and services.